Location: Allie Creek
(37.5926°N, 89.8526°W)
Time: 14:08:16
(UTC+00:00)

Meteor 1-27 Rocket - Pass Details

Date: 20 April 2024
Orbit: 829 x 909 km, 81.3° (Epoch: 26 May)

Event Time Altitude Azimuth Distance (km) Brightness Sun altitude
Exits shadow 07:27:24 32° 62° (ENE) 1,461 5.2 -36.4°
Drops below altitude 10° 07:31:09 10° 27° (NNE) 2,501 6.9 -36.1°
Sets 07:33:43 0° 19° (NNE) 3,429 7.8 -35.8°
